Other Public Products
Issued by NWS Grand Forks, ND

Home | Current Version | Previous Version | Graphics & Text | Print | Product List | Glossary On
Versions: 1 2 3 4 5 6 7 8 9 10 11 12 13 14 15 16 17 18 19 20 21 22 23 24 25 26 27 28 29 30 31 32 33 34 35 36 37 38 39 40 41 42 43 44 45 46 47 48 49 50
000
FPUS83 KFGF 190610
OPUFGF
PRAIRIE TO PINES WEATHER ROUNDUP
NATIONAL WEATHER SERVICE EASTERN NORTH DAKOTA/GRAND FORKS ND
1200 AM CST MON FEB 19 2018

 **SATELLITE DATA USED TO AUGMENT SKY COVER AT AUTOMATED STATIONS**
 *****  WEATHER ACROSS EASTERN NORTH DAKOTA  *****

CITY           SKY/WX    TMP DP  RH WIND       PRES   REMARKS
GRAND FORKS    FAIR       8  -2  63 N17       30.10R WCI -10
6HR MIN TEMP:   7; 6HR MAX TEMP:  12;

GRND FORKS AFB FAIR       6  -4  63 N16       30.11R WCI -12
GRND FORKS NWS   N/A      6   0  78 N15       30.07R WCI -12
BUXTON           N/A      7   5  91 N14G26      N/A  WCI -10
DEVILS LAKE    FAIR       3  -2  79 N10       30.10R WCI -12
6HR MIN TEMP:   3; 6HR MAX TEMP:   7;

FARGO          FAIR       9   3  77 N18       30.05R WCI -10
6HR MIN TEMP:   9; 6HR MAX TEMP:  13;

WAHPETON ARPT  CLOUDY    10   5  79 N17       29.99R WCI  -7
$$

 *****  WEATHER ACROSS CENTRAL AND WESTERN NORTH DAKOTA  *****

CITY           SKY/WX    TMP DP  RH WIND       PRES   REMARKS
JAMESTOWN      CLOUDY     8   0  69 N17       30.05R WCI -10
6HR MIN TEMP:   8; 6HR MAX TEMP:  10; 6HR PCP: TRACE;

BISMARCK       CLOUDY     8  -1  66 N8        30.13R WCI  -4
6HR MIN TEMP:   8; 6HR MAX TEMP:  11; 6HR PCP: TRACE;

MINOT          FAIR      -3 -12  65 NW6       30.13R WCI -15
6HR MIN TEMP:  -3; 6HR MAX TEMP:   8;

MINOT AFB      FAIR       0 -11  59 N8        30.13R WCI -15
6HR MIN TEMP:  -3; 6HR MAX TEMP:   8;

GARRISON         N/A      2  -6  69 N9        30.12R WCI -13
6HR MIN TEMP:   2; 6HR MAX TEMP:   8;

WILLISTON      FAIR      -7 -10  87 CALM      30.16R
6HR MIN TEMP: -10; 6HR MAX TEMP:   7;

DICKINSON      LGT SNOW   5  -1  76 N6        30.05R WCI  -6
6HR MIN TEMP:   5; 6HR MAX TEMP:   6; 6HR PCP: TRACE;

HETTINGER      LGT SNOW   4  -1  80 N8        30.05R WCI  -9
6HR MIN TEMP:   4; 6HR MAX TEMP:   6; 6HR PCP: TRACE;

$$

 *****  OTHER OBSERVATIONS NORTHEAST NORTH DAKOTA  *****

CITY           SKY/WX    TMP DP  RH WIND       PRES   REMARKS
WALHALLA       FAIR       3  -4  72 N10       30.16R WCI -12
LANGDON        NOT AVBL
CAVALIER         N/A      3  -4  72 N9        30.16R WCI -11
GRAFTON        NOT AVBL
CANDO          CLOUDY     3  -4  72 N9        30.13S WCI -11
FORT TOTTEN      N/A      3  -2  79 N3        29.95S
ROLLA          MOCLDY    -2  -6  84 N10       30.08F WCI -19
RUGBY          NOT AVBL
 ***** THE ABOVE OBSERVATIONS ARE NON NWS ARE NOT QUALITY
        CONTROLLED AND MAY MIS-REPORT RAIN FOR SNOW...
$$

 *****  OTHER OBSERVATIONS SOUTHEAST NORTH DAKOTA *****

CITY           SKY/WX    TMP DP  RH WIND       PRES   REMARKS
COOPERSTOWN    FAIR       7   0  72 N16       30.09R WCI -11
VALLEY CITY    NOT AVBL
OAKES            N/A      9   1  72 N22       30.04R WCI -11
GWINNER          N/A      9   3  78 N20       30.01R WCI -11
SHEYENNE NWR     N/A      9   2  73 N12       29.95  WCI  -6
BUFFALO          N/A      7   1  75 SE14        N/A  WCI -10
WYNDMERE       NOT AVBL
 ***** THE ABOVE OBSERVATIONS ARE NON NWS ARE NOT QUALITY
       CONTROLLED AND MAY MIS-REPORT RAIN FOR SNOW...
$$

  *****  WEATHER ACROSS NORTHERN MINNESOTA  *****

CITY           SKY/WX    TMP DP  RH WIND       PRES   REMARKS
FLAG ISLAND    FAIR      -2  -6  84 N7        30.05S WCI -16
WARROAD        FAIR       1  -4  78 NW7       30.07R WCI -11
ROSEAU         NOT AVBL
HALLOCK        FAIR       5  -8  56 N12       30.12R WCI -11
THF RVR FALLS  FAIR       5  -1  76 N15       30.06R WCI -13
6HR MIN TEMP:   5; 6HR MAX TEMP:   9; 6HR PCP: TRACE;

HALSTAD        NOT AVBL
FOSSTON        FAIR       3  -2  78 N7        30.02R WCI  -9
BAUDETTE       FAIR       4  -2  76 N9        30.02R WCI -10
6HR MIN TEMP:   4; 6HR MAX TEMP:  10;

WASKISH        FAIR       5   1  85 N8        29.98S WCI  -8
CROOKSTON      FAIR       7   0  72 N13       30.09R WCI  -9
$$
  *****  WEATHER ACROSS CENTRAL AND WEST MINNESOTA  *****

CITY           SKY/WX    TMP DP  RH WIND       PRES   REMARKS
BEMIDJI        FAIR       4   0  85 N5        29.97R WCI  -5
6HR MIN TEMP:   4; 6HR MAX TEMP:  13;

PARK RAPIDS    CLOUDY     9   4  80 N10       29.93R WCI  -5
6HR MIN TEMP:   9; 6HR MAX TEMP:  19; 6HR PCP: TRACE;

WADENA         FLURRIES  10   7  85 N10       29.91R WCI  -3
DETROIT LAKES  FAIR      10   7  85 N8        29.97R WCI  -1
MOORHEAD       FAIR       9   1  72 N15       30.04R WCI  -8
FERGUS FALLS   CLOUDY    10   7  85 N12G18    29.95S WCI  -4
ELBOW LAKE     FAIR      13   8  82 N12       29.90F WCI  -1
6HR MIN TEMP:  13; 6HR MAX TEMP:  21;

MORRIS MN      FAIR      14   9  79 N16       29.87F WCI  -2
STAPLES        CLOUDY    10   7  85 N10       29.90S WCI  -3
WHEATON        CLOUDY    10   5  79 NW16G22   29.99R WCI  -7
$$
  *****  WEATHER ELSEWHERE ACROSS MINNESOTA  *****

CITY           SKY/WX    TMP DP  RH WIND       PRES   REMARKS
DULUTH         CLOUDY    14   9  80 N9        29.87R WCI   2
6HR MIN TEMP:  14; 6HR MAX TEMP:  23; 6HR PCP:  0.08;

INTRNTL FALLS  FAIR       5   0  79 N7        29.99R WCI  -7
6HR MIN TEMP:   5; 6HR MAX TEMP:  10; 6HR PCP: TRACE;

ELY            FAIR       5   1  85 CALM      29.91R
CLOQUET        CLOUDY    16   9  73 N13G20    29.87R WCI   2
BRAINERD       CLOUDY    14   7  73 N14       29.91R WCI  -1
6HR MIN TEMP:  14; 6HR MAX TEMP:  21; 6HR PCP: TRACE;

HIBBING        MIX PCPN   7   2  80 N8        29.91R WCI  -6
6HR MIN TEMP:   7; 6HR MAX TEMP:  16; 6HR PCP: TRACE;

ALEXANDRIA     MOCLDY    15  10  80 N13       29.86S WCI   1
6HR MIN TEMP:  15; 6HR MAX TEMP:  21;

SAINT CLOUD    LGT SNOW  21  16  81 N16G24    29.82R WCI   7
6HR MIN TEMP:  21; 6HR MAX TEMP:  32; 6HR PCP: TRACE;

MINNEAPOLIS    FAIR      27  23  85 N20       29.76R WCI  13
6HR MIN TEMP:  27; 6HR MAX TEMP:  41;

$$

  *****  WEATHER ACROSS SOUTH DAKOTA  *****

CITY           SKY/WX    TMP DP  RH WIND       PRES   REMARKS
SIOUX FALLS    FAIR      19  14  81 N16       29.76S WCI   4
6HR MIN TEMP:  19; 6HR MAX TEMP:  36;

BROOKINGS      FLURRIES  14  10  84 N21G28    29.77F WCI  -4
WATERTOWN      CLOUDY    11   7  84 N23G30    29.85S WCI  -9
6HR MIN TEMP:  11; 6HR MAX TEMP:  21; 6HR PCP: TRACE;

HURON          MOCLDY    12   7  80 N28G35    29.89F WCI  -9
6HR MIN TEMP:  12; 6HR MAX TEMP:  22; 6HR PCP: TRACE;

SISSETON         N/A     12   6  77 N21       29.97R WCI  -7
ABERDEEN       CLOUDY    11   4  73 N23       30.02S WCI  -9
6HR MIN TEMP:  11; 6HR MAX TEMP:  18; 6HR PCP: TRACE;

MITCHELL       MOCLDY    15  10  80 N23G33    29.85R WCI  -3
PIERRE         LGT SNOW  10   7  87 N22       29.98R FOG     WCI -10
6HR MIN TEMP:  10; 6HR MAX TEMP:  17; 6HR PCP: TRACE;

MOBRIDGE       LGT SNOW  10   3  73 N16G23    30.03R WCI  -7
RAPID CITY     LGT SNOW   4   1  88 N20       29.93R FOG     WCI -17
6HR MIN TEMP:   4; 6HR MAX TEMP:   8; 6HR PCP:  0.09;

$$

  *****  SOME WEATHER IN NEARBY STATES *****

CITY           SKY/WX    TMP DP  RH WIND       PRES   REMARKS
GLASGOW MT     FLURRIES   1  -4  79 NW6       30.14R WCI -10
6HR MIN TEMP:  -1; 6HR MAX TEMP:   4; 6HR PCP: TRACE;

GREAT FALLS MT CLOUDY    -5  -9  83 N5        30.03R WCI -16
6HR MIN TEMP:  -7; 6HR MAX TEMP:   1; 6HR PCP:  0.01;

CHEYENNE WY    LGT SNOW   9   8  96 N16G24    29.61R FOG     WCI  -8
6HR MIN TEMP:   9; 6HR MAX TEMP:  51; 6HR PCP: TRACE;

SCOTTSBLUFF NE CLOUDY    12   4  70 N10       29.81R WCI  -1
6HR MIN TEMP:  11; 6HR MAX TEMP:  24;

OMAHA NE       CLOUDY    35  30  82 N15       29.66R
6HR MIN TEMP:  35; 6HR MAX TEMP:  50;

DES MOINES IA  MOCLDY    44  33  65 S8        29.70R
6HR MIN TEMP:  43; 6HR MAX TEMP:  48;

DAVENPORT IA   CLOUDY    43  32  65 S17       29.80F
6HR MIN TEMP:  40; 6HR MAX TEMP:  43;

CHICAGO IL     LGT RAIN  40  32  73 S10       29.88R
6HR MIN TEMP:  36; 6HR MAX TEMP:  41; 6HR PCP:  0.02;

EAU CLAIRE WI  FAIR      33  26  75 SE6       29.73R
6HR MIN TEMP:  33; 6HR MAX TEMP:  38;

LA CROSSE WI   CLOUDY    40  30  67 S15       29.73S
6HR MIN TEMP:  37; 6HR MAX TEMP:  40;

$$

  *****  SOME NATIONAL WEATHER *****

CITY           SKY/WX    TMP DP  RH WIND       PRES   REM



USA.gov is the U.S. government's official web portal to all federal, state and local government web resources and services.